CORVUS BC1

Last updated on Sun Jul 26 2026 00:03:50 GMT+0000 (Coordinated Universal Time)

1 42847U 17042Y 26206.37964257 .00003257 00000+0 22329-3 0 9995 2 42847 97.4136 7.0969 0010597 324.0000 36.0513 15.06671439492846
UTC large
Height (km)
Speed (km/s)
/
Latitude / Longitude
Inclination (degrees)
Orbital Period (minutes)
Azimuth
Elevation
Range (km)
Doppler Factor

Next 0 passes for location: London (51.5072 / 0.1276)

No passes found over London.